"Sample Date","Sample Time","Sample Value","Units","Flow Rate","Laser Status","Micron Size 0","Counts/Channel 0","Micron Size 1","Counts/Channel 1","Micron Size 2","Counts/Channel 2","Micron Size 3","Counts/Channel 3","Micron Size 4","Counts/Channel 4","Micron Size 5","Counts/Channel 5","Micron Size 6","Counts/Channel 6","Micron Size 7","Counts/Channel 7","Micron Size 8","Counts/Channel 8","Micron Size 9","Counts/Channel 9","Micron Size 10","Counts/Channel 10","Micron Size 11","Counts/Channel 11","Micron Size 12","Counts/Channel 12","Micron Size 13","Counts/Channel 13","Micron Size 14","Counts/Channel 14","Micron Size 15","Counts/Channel 15","Micron Size 16","Counts/Channel 16","Micron Size 17","Counts/Channel 17","Micron Size 18","Counts/Channel 18","Micron Size 19","Counts/Channel 19","Micron Size 20","Counts/Channel 20","Micron Size 21","Counts/Channel 21","Micron Size 22","Counts/Channel 22","Micron Size 23","Counts/Channel 23","Micron Size 24","Counts/Channel 24","Micron Size 25","Counts/Channel 25","Micron Size 26","Counts/Channel 26","Micron Size 27","Counts/Channel 27","Micron Size 28","Counts/Channel 28","Micron Size 29","Counts/Channel 29","Micron Size 30","Counts/Channel 30","Micron Size 31","Counts/Channel 31"
"03/01/08","00:00:05",20051.000,"cc",28301.543,1,0.100,18008.000,0.200,967.000,0.300,442.000,0.500,448.000,1.000,186.000,5.000,0
"03/01/08","00:00:11",21348.000,"cc",28342.537,1,0.100,18387.000,0.200,1390.000,0.300,640.000,0.500,668.000,1.000,263.000,5.000,0
"03/01/08","00:00:17",19387.000,"cc",28312.418,1,0.100,16964.000,0.200,1166.000,0.300,524.000,0.500,528.000,1.000,205.000,5.000,0
"03/01/08","00:00:23",16543.000,"cc",28270.650,1,0.100,14544.000,0.200,899.000,0.300,451.000,0.500,477.000,1.000,172.000,5.000,0
"03/01/08","00:00:29",17496.000,"cc",28336.383,1,0.100,14304.000,0.200,1388.000,0.300,792.000,0.500,733.000,1.000,279.000,5.000,0
"03/01/08","00:00:35",15676.000,"cc",28304.744,1,0.100,13535.000,0.200,996.000,0.300,452.000,0.500,458.000,1.000,235.000,5.000,0
"03/01/08","00:00:41",13289.000,"cc",28358.201,1,0.100,11585.000,0.200,749.000,0.300,379.000,0.500,409.000,1.000,167.000,5.000,0
"03/01/08","00:00:47",13337.000,"cc",28260.869,1,0.100,11582.000,0.200,769.000,0.300,401.000,0.500,425.000,1.000,160.000,5.000,0
"03/01/08","00:00:53",13758.000,"cc",28424.285,1,0.100,11690.000,0.200,917.000,0.300,467.000,0.500,501.000,1.000,183.000,5.000,0
"03/01/08","00:00:59",12666.000,"cc",28254.920,1,0.100,10874.000,0.200,751.000,0.300,458.000,0.500,416.000,1.000,167.000,5.000,0
"03/01/08","00:01:05",14628.000,"cc",28201.553,1,0.100,11606.000,0.200,1241.000,0.300,768.000,0.500,723.000,1.000,290.000,5.000,0
"03/01/08","00:01:11",12364.000,"cc",28360.809,1,0.100,10402.000,0.200,840.000,0.300,428.000,0.500,507.000,1.000,187.000,5.000,0
"03/01/08","00:01:17",11743.000,"cc",28343.328,1,0.100,10157.000,0.200,696.000,0.300,327.000,0.500,400.000,1.000,162.000,5.000,1.000
"03/01/08","00:01:23",14926.000,"cc",28248.182,1,0.100,11549.000,0.200,1411.000,0.300,877.000,0.500,768.000,1.000,321.000,5.000,0
"03/01/08","00:01:29",12093.000,"cc",28467.924,1,0.100,10222.000,0.200,745.000,0.300,431.000,0.500,490.000,1.000,205.000,5.000,0
"03/01/08","00:01:35",13215.000,"cc",28327.127,1,0.100,10960.000,0.200,953.000,0.300,518.000,0.500,550.000,1.000,234.000,5.000,0
"03/01/08","00:01:41",14430.000,"cc",28257.947,1,0.100,11730.000,0.200,1219.000,0.300,640.000,0.500,609.000,1.000,232.000,5.000,0
"03/01/08","00:01:47",13484.000,"cc",28301.922,1,0.100,11465.000,0.200,933.000,0.300,443.000,0.500,482.000,1.000,160.000,5.000,1.000
"03/01/08","00:01:53",14556.000,"cc",28317.127,1,0.100,12026.000,0.200,1180.000,0.300,570.000,0.500,546.000,1.000,234.000,5.000,0
"03/01/08","00:01:59",14353.000,"cc",28330.215,1,0.100,12108.000,0.200,1115.000,0.300,481.000,0.500,479.000,1.000,170.000,5.000,0
"03/01/08","00:02:05",14498.000,"cc",28291.063,1,0.100,12373.000,0.200,1086.000,0.300,408.000,0.500,469.000,1.000,162.000,5.000,0
"03/01/08","00:02:11",14979.000,"cc",28328.647,1,0.100,12575.000,0.200,1182.000,0.300,508.000,0.500,516.000,1.000,198.000,5.000,0
"03/01/08","00:02:17",18571.000,"cc",28290.029,1,0.100,14559.000,0.200,1950.000,0.300,966.000,0.500,819.000,1.000,277.000,5.000,0
"03/01/08","00:02:23",15145.000,"cc",28322.148,1,0.100,12684.000,0.200,1199.000,0.300,547.000,0.500,526.000,1.000,189.000,5.000,0
"03/01/08","00:02:29",14767.000,"cc",28318.428,1,0.100,12411.000,0.200,1167.000,0.300,545.000,0.500,470.000,1.000,174.000,5.000,0
"03/01/08","00:02:35",17415.000,"cc",28254.590,1,0.100,13591.000,0.200,1785.000,0.300,917.000,0.500,833.000,1.000,289.000,5.000,0
"03/01/08","00:02:41",15849.000,"cc",28427.643,1,0.100,12951.000,0.200,1396.000,0.300,684.000,0.500,577.000,1.000,240.000,5.000,1.000
"03/01/08","00:02:47",17287.000,"cc",28366.176,1,0.100,13663.000,0.200,1739.000,0.300,828.000,0.500,794.000,1.000,263.000,5.000,0
"03/01/08","00:02:53",15772.000,"cc",28194.068,1,0.100,12997.000,0.200,1400.000,0.300,617.000,0.500,533.000,1.000,224.000,5.000,1.000
"03/01/08","00:02:59",17212.000,"cc",28285.488,1,0.100,13427.000,0.200,1784.000,0.300,898.000,0.500,784.000,1.000,319.000,5.000,0
"03/01/08","00:03:05",15460.000,"cc",28350.818,1,0.100,12855.000,0.200,1248.000,0.300,564.000,0.500,566.000,1.000,227.000,5.000,0
"03/01/08","00:03:11",13676.000,"cc",28428.656,1,0.100,11790.000,0.200,934.000,0.300,376.000,0.500,425.000,1.000,151.000,5.000,0
"03/01/08","00:03:17",16061.000,"cc",28225.113,1,0.100,12974.000,0.200,1458.000,0.300,749.000,0.500,643.000,1.000,237.000,5.000,0
"03/01/08","00:03:23",18239.000,"cc",28308.904,1,0.100,13944.000,0.200,1930.000,0.300,994.000,0.500,982.000,1.000,388.000,5.000,1.000
"03/01/08","00:03:29",13332.000,"cc",28310.391,1,0.100,11481.000,0.200,889.000,0.300,411.000,0.500,398.000,1.000,153.000,5.000,0
"03/01/08","00:03:35",15004.000,"cc",28287.588,1,0.100,12102.000,0.200,1224.000,0.300,719.000,0.500,683.000,1.000,276.000,5.000,0
"03/01/08","00:03:41",13638.000,"cc",28318.369,1,0.100,11427.000,0.200,1023.000,0.300,481.000,0.500,496.000,1.000,211.000,5.000,0
"03/01/08","00:03:47",17342.000,"cc",28277.315,1,0.100,13622.000,0.200,1782.000,0.300,902.000,0.500,743.000,1.000,292.000,5.000,1.000
"03/01/08","00:03:53",13652.000,"cc",28315.320,1,0.100,11502.000,0.200,992.000,0.300,489.000,0.500,473.000,1.000,196.000,5.000,0
"03/01/08","00:03:59",13510.000,"cc",28331.764,1,0.100,11437.000,0.200,909.000,0.300,475.000,0.500,495.000,1.000,194.000,5.000,0
"03/01/08","00:04:05",15857.000,"cc",28355.287,1,0.100,12460.000,0.200,1500.000,0.300,844.000,0.500,752.000,1.000,301.000,5.000,0
"03/01/08","00:04:11",13548.000,"cc",28342.133,1,0.100,11215.000,0.200,1029.000,0.300,529.000,0.500,554.000,1.000,221.000,5.000,0
"03/01/08","00:04:17",13062.000,"cc",28350.994,1,0.100,11003.000,0.200,918.000,0.300,485.000,0.500,463.000,1.000,193.000,5.000,0
"03/01/08","00:04:23",12392.000,"cc",28361.318,1,0.100,10604.000,0.200,769.000,0.300,407.000,0.500,432.000,1.000,180.000,5.000,0
"03/01/08","00:04:29",12576.000,"cc",28245.352,1,0.100,10596.000,0.200,832.000,0.300,455.000,0.500,498.000,1.000,195.000,5.000,0
"03/01/08","00:04:35",11902.000,"cc",28351.348,1,0.100,10182.000,0.200,740.000,0.300,378.000,0.500,420.000,1.000,182.000,5.000,0
"03/01/08","00:04:41",12805.000,"cc",28247.205,1,0.100,10620.000,0.200,938.000,0.300,509.000,0.500,528.000,1.000,210.000,5.000,0
"03/01/08","00:04:47",12000.000,"cc",28343.522,1,0.100,10167.000,0.200,739.000,0.300,379.000,0.500,515.000,1.000,200.000,5.000,0
"03/01/08","00:04:53",11702.000,"cc",28362.391,1,0.100,9952.000,0.200,676.000,0.300,395.000,0.500,462.000,1.000,217.000,5.000,0
"03/01/08","00:04:59",11303.000,"cc",28331.523,1,0.100,9665.000,0.200,645.000,0.300,416.000,0.500,409.000,1.000,168.000,5.000,0
"03/01/08","00:05:05",11151.000,"cc",28291.117,1,0.100,9508.000,0.200,585.000,0.300,442.000,0.500,424.000,1.000,192.000,5.000,0
"03/01/08","00:05:11",11480.000,"cc",28266.479,1,0.100,9592.000,0.200,734.000,0.300,478.000,0.500,477.000,1.000,199.000,5.000,0
"03/01/08","00:05:17",14011.000,"cc",28323.568,1,0.100,10947.000,0.200,1261.000,0.300,770.000,0.500,750.000,1.000,283.000,5.000,0
"03/01/08","00:05:23",11362.000,"cc",28379.141,1,0.100,9682.000,0.200,646.000,0.300,412.000,0.500,434.000,1.000,188.000,5.000,0
"03/01/08","00:05:29",11748.000,"cc",28290.887,1,0.100,9843.000,0.200,766.000,0.300,458.000,0.500,486.000,1.000,195.000,5.000,0
"03/01/08","00:05:35",11250.000,"cc",28377.514,1,0.100,9665.000,0.200,599.000,0.300,391.000,0.500,436.000,1.000,159.000,5.000,0
"03/01/08","00:05:41",11714.000,"cc",28344.402,1,0.100,9829.000,0.200,731.000,0.300,452.000,0.500,516.000,1.000,186.000,5.000,0
"03/01/08","00:05:47",11062.000,"cc",28250.043,1,0.100,9485.000,0.200,610.000,0.300,357.000,0.500,437.000,1.000,173.000,5.000,0
"03/01/08","00:05:53",11949.000,"cc",28303.154,1,0.100,10039.000,0.200,775.000,0.300,459.000,0.500,487.000,1.000,189.000,5.000,0
"03/01/08","00:05:59",12202.000,"cc",28304.678,1,0.100,10257.000,0.200,777.000,0.300,495.000,0.500,486.000,1.000,187.000,5.000,0
"03/01/08","00:06:05",15018.000,"cc",28357.428,1,0.100,11390.000,0.200,1432.000,0.300,940.000,0.500,920.000,1.000,336.000,5.000,0
"03/01/08","00:06:11",11202.000,"cc",28362.988,1,0.100,9796.000,0.200,553.000,0.300,353.000,0.500,342.000,1.000,158.000,5.000,0
"03/01/08","00:06:17",11790.000,"cc",28299.897,1,0.100,10116.000,0.200,702.000,0.300,403.000,0.500,397.000,1.000,172.000,5.000,0
"03/01/08","00:06:23",11429.000,"cc",28270.000,1,0.100,9887.000,0.200,638.000,0.300,361.000,0.500,394.000,1.000,149.000,5.000,0
"03/01/08","00:06:29",13622.000,"cc",28362.059,1,0.100,10933.000,0.200,1092.000,0.300,727.000,0.500,646.000,1.000,224.000,5.000,0
"03/01/08","00:06:35",12294.000,"cc",28322.699,1,0.100,10251.000,0.200,843.000,0.300,495.000,0.500,487.000,1.000,218.000,5.000,0
"03/01/08","00:06:41",12727.000,"cc",28230.488,1,0.100,10432.000,0.200,949.000,0.300,550.000,0.500,561.000,1.000,235.000,5.000,0
"03/01/08","00:06:47",14654.000,"cc",28346.275,1,0.100,11521.000,0.200,1349.000,0.300,782.000,0.500,728.000,1.000,274.000,5.000,0
"03/01/08","00:06:53",11493.000,"cc",28293.725,1,0.100,9965.000,0.200,573.000,0.300,345.000,0.500,420.000,1.000,190.000,5.000,0
"03/01/08","00:06:59",11797.000,"cc",28368.949,1,0.100,10021.000,0.200,673.000,0.300,406.000,0.500,487.000,1.000,210.000,5.000,0
"03/01/08","00:07:05",12222.000,"cc",28274.168,1,0.100,10265.000,0.200,782.000,0.300,459.000,0.500,494.000,1.000,222.000,5.000,0
"03/01/08","00:07:11",11961.000,"cc",28250.297,1,0.100,10126.000,0.200,714.000,0.300,458.000,0.500,459.000,1.000,204.000,5.000,0
"03/01/08","00:07:17",11337.000,"cc",28403.035,1,0.100,9688.000,0.200,651.000,0.300,366.000,0.500,461.000,1.000,171.000,5.000,0
"03/01/08","00:07:23",12643.000,"cc",28240.268,1,0.100,10397.000,0.200,896.000,0.300,564.000,0.500,581.000,1.000,205.000,5.000,0
"03/01/08","00:07:29",11510.000,"cc",28308.217,1,0.100,9760.000,0.200,663.000,0.300,418.000,0.500,469.000,1.000,200.000,5.000,0
"03/01/08","00:07:35",11664.000,"cc",28339.947,1,0.100,9925.000,0.200,701.000,0.300,399.000,0.500,451.000,1.000,188.000,5.000,0
"03/01/08","00:07:41",11204.000,"cc",28272.428,1,0.100,9665.000,0.200,594.000,0.300,360.000,0.500,409.000,1.000,176.000,5.000,0
"03/01/08","00:07:47",13292.000,"cc",28297.606,1,0.100,10676.000,0.200,1029.000,0.300,655.000,0.500,657.000,1.000,275.000,5.000,0
"03/01/08","00:07:53",11916.000,"cc",28373.715,1,0.100,10047.000,0.200,711.000,0.300,468.000,0.500,493.000,1.000,197.000,5.000,0
"03/01/08","00:07:59",11870.000,"cc",28353.807,1,0.100,9856.000,0.200,771.000,0.300,481.000,0.500,521.000,1.000,241.000,5.000,0
"03/01/08","00:08:05",11496.000,"cc",28341.406,1,0.100,9734.000,0.200,675.000,0.300,415.000,0.500,491.000,1.000,181.000,5.000,0
"03/01/08","00:08:11",11583.000,"cc",28260.398,1,0.100,9832.000,0.200,672.000,0.300,408.000,0.500,463.000,1.000,208.000,5.000,0
"03/01/08","00:08:17",11867.000,"cc",28333.867,1,0.100,10000.000,0.200,754.000,0.300,412.000,0.500,486.000,1.000,215.000,5.000,0
"03/01/08","00:08:23",11702.000,"cc",28428.838,1,0.100,9665.000,0.200,815.000,0.300,498.000,0.500,530.000,1.000,194.000,5.000,0
"03/01/08","00:08:29",11506.000,"cc",28321.842,1,0.100,9845.000,0.200,648.000,0.300,375.000,0.500,453.000,1.000,185.000,5.000,0
"03/01/08","00:08:35",10816.000,"cc",28277.631,1,0.100,9393.000,0.200,554.000,0.300,306.000,0.500,407.000,1.000,156.000,5.000,0
"03/01/08","00:08:41",14072.000,"cc",28267.066,1,0.100,10766.000,0.200,1317.000,0.300,881.000,0.500,793.000,1.000,315.000,5.000,0
"03/01/08","00:08:47",19731.000,"cc",28319.850,1,0.100,13705.000,0.200,2458.000,0.300,1590.000,0.500,1466.000,1.000,512.000,5.000,0
"03/01/08","00:08:53",11122.000,"cc",28396.660,1,0.100,9541.000,0.200,643.000,0.300,387.000,0.500,409.000,1.000,142.000,5.000,0
"03/01/08","00:08:59",10979.000,"cc",28351.895,1,0.100,9410.000,0.200,613.000,0.300,365.000,0.500,416.000,1.000,175.000,5.000,0
"03/01/08","00:09:05",11619.000,"cc",28318.523,1,0.100,9777.000,0.200,739.000,0.300,468.000,0.500,479.000,1.000,156.000,5.000,0
"03/01/08","00:09:11",10986.000,"cc",28317.949,1,0.100,9358.000,0.200,652.000,0.300,380.000,0.500,413.000,1.000,183.000,5.000,0
"03/01/08","00:09:17",11648.000,"cc",28294.037,1,0.100,9785.000,0.200,755.000,0.300,456.000,0.500,467.000,1.000,185.000,5.000,0
"03/01/08","00:09:23",11359.000,"cc",28341.891,1,0.100,9605.000,0.200,666.000,0.300,400.000,0.500,479.000,1.000,209.000,5.000,0
"03/01/08","00:09:29",13162.000,"cc",28316.045,1,0.100,10677.000,0.200,1048.000,0.300,630.000,0.500,579.000,1.000,228.000,5.000,0
"03/01/08","00:09:35",13034.000,"cc",28239.412,1,0.100,10315.000,0.200,1022.000,0.300,675.000,0.500,729.000,1.000,293.000,5.000,0
"03/01/08","00:09:41",11199.000,"cc",28329.170,1,0.100,9616.000,0.200,637.000,0.300,370.000,0.500,401.000,1.000,175.000,5.000,0
"03/01/08","00:09:47",12225.000,"cc",28301.963,1,0.100,9968.000,0.200,870.000,0.300,567.000,0.500,576.000,1.000,244.000,5.000,0
"03/01/08","00:09:53",11027.000,"cc",28297.627,1,0.100,9438.000,0.200,646.000,0.300,372.000,0.500,418.000,1.000,153.000,5.000,0
"03/01/08","00:09:59",11884.000,"cc",28366.861,1,0.100,9844.000,0.200,822.000,0.300,513.000,0.500,502.000,1.000,203.000,5.000,0
"03/01/08","00:10:05",11481.000,"cc",28397.623,1,0.100,9632.000,0.200,775.000,0.300,419.000,0.500,474.000,1.000,181.000,5.000,0
"03/01/08","00:10:11",11054.000,"cc",28337.031,1,0.100,9459.000,0.200,644.000,0.300,369.000,0.500,405.000,1.000,177.000,5.000,0
"03/01/08","00:10:17",10599.000,"cc",28307.592,1,0.100,9251.000,0.200,538.000,0.300,318.000,0.500,349.000,1.000,142.000,5.000,1.000
"03/01/08","00:10:23",10422.000,"cc",28297.168,1,0.100,9050.000,0.200,563.000,0.300,334.000,0.500,342.000,1.000,133.000,5.000,0
"03/01/08","00:10:29",11973.000,"cc",28241.527,1,0.100,9887.000,0.200,819.000,0.300,540.000,0.500,538.000,1.000,188.000,5.000,1.000
"03/01/08","00:10:35",12102.000,"cc",28328.174,1,0.100,9981.000,0.200,922.000,0.300,505.000,0.500,513.000,1.000,181.000,5.000,0
"03/01/08","00:10:41",12566.000,"cc",28264.652,1,0.100,10103.000,0.200,988.000,0.300,626.000,0.500,607.000,1.000,242.000,5.000,0
"03/01/08","00:10:47",14950.000,"cc",28292.975,1,0.100,11266.000,0.200,1491.000,0.300,969.000,0.500,886.000,1.000,338.000,5.000,0
"03/01/08","00:10:53",10747.000,"cc",28311.932,1,0.100,9212.000,0.200,572.000,0.300,368.000,0.500,442.000,1.000,153.000,5.000,0
"03/01/08","00:10:59",10867.000,"cc",28413.379,1,0.100,9326.000,0.200,591.000,0.300,372.000,0.500,389.000,1.000,189.000,5.000,0
"03/01/08","00:11:05",10793.000,"cc",28295.850,1,0.100,9279.000,0.200,605.000,0.300,340.000,0.500,414.000,1.000,155.000,5.000,0
"03/01/08","00:11:11",12354.000,"cc",28217.768,1,0.100,9982.000,0.200,972.000,0.300,594.000,0.500,567.000,1.000,239.000,5.000,0
"03/01/08","00:11:17",11157.000,"cc",28324.047,1,0.100,9373.000,0.200,707.000,0.300,418.000,0.500,476.000,1.000,183.000,5.000,0
"03/01/08","00:11:23",10568.000,"cc",28418.877,1,0.100,9107.000,0.200,566.000,0.300,342.000,0.500,392.000,1.000,161.000,5.000,0
"03/01/08","00:11:29",10271.000,"cc",28262.920,1,0.100,9020.000,0.200,542.000,0.300,281.000,0.500,295.000,1.000,133.000,5.000,0
"03/01/08","00:11:35",10578.000,"cc",28191.629,1,0.100,9199.000,0.200,644.000,0.300,307.000,0.500,305.000,1.000,123.000,5.000,0
"03/01/08","00:11:41",20441.000,"cc",28428.949,1,0.100,13279.000,0.200,2708.000,0.300,2017.000,0.500,1717.000,1.000,720.000,5.000,0
"03/01/08","00:11:47",12201.000,"cc",28424.938,1,0.100,9757.000,0.200,1018.000,0.300,615.000,0.500,579.000,1.000,232.000,5.000,0
"03/01/08","00:11:53",10871.000,"cc",28317.607,1,0.100,9286.000,0.200,693.000,0.300,373.000,0.500,388.000,1.000,131.000,5.000,0
"03/01/08","00:11:59",10818.000,"cc",28265.316,1,0.100,9264.000,0.200,657.000,0.300,348.000,0.500,408.000,1.000,141.000,5.000,0
"03/01/08","00:12:05",10845.000,"cc",28313.535,1,0.100,9294.000,0.200,623.000,0.300,385.000,0.500,397.000,1.000,146.000,5.000,0
"03/01/08","00:12:11",10526.000,"cc",28296.559,1,0.100,9068.000,0.200,590.000,0.300,364.000,0.500,361.000,1.000,143.000,5.000,0
"03/01/08","00:12:17",10875.000,"cc",28361.461,1,0.100,9251.000,0.200,642.000,0.300,389.000,0.500,446.000,1.000,147.000,5.000,0
"03/01/08","00:12:23",10556.000,"cc",28330.662,1,0.100,9000.000,0.200,610.000,0.300,349.000,0.500,414.000,1.000,183.000,5.000,0
"03/01/08","00:12:29",10748.000,"cc",28292.740,1,0.100,9338.000,0.200,567.000,0.300,308.000,0.500,374.000,1.000,161.000,5.000,0
"03/01/08","00:12:35",12078.000,"cc",28420.190,1,0.100,9724.000,0.200,1016.000,0.300,604.000,0.500,532.000,1.000,202.000,5.000,0
"03/01/08","00:12:41",10614.000,"cc",28294.205,1,0.100,9084.000,0.200,650.000,0.300,343.000,0.500,386.000,1.000,151.000,5.000,0
"03/01/08","00:12:47",10948.000,"cc",28370.369,1,0.100,9291.000,0.200,651.000,0.300,402.000,0.500,435.000,1.000,169.000,5.000,0
"03/01/08","00:12:53",10669.000,"cc",28258.494,1,0.100,9199.000,0.200,582.000,0.300,347.000,0.500,385.000,1.000,156.000,5.000,0
"03/01/08","00:12:59",11269.000,"cc",28260.307,1,0.100,9524.000,0.200,718.000,0.300,416.000,0.500,456.000,1.000,155.000,5.000,0
"03/01/08","00:13:05",10596.000,"cc",28336.606,1,0.100,9124.000,0.200,595.000,0.300,332.000,0.500,391.000,1.000,154.000,5.000,0
"03/01/08","00:13:11",10465.000,"cc",28347.332,1,0.100,9084.000,0.200,585.000,0.300,297.000,0.500,363.000,1.000,136.000,5.000,0
"03/01/08","00:13:17",10823.000,"cc",28319.324,1,0.100,9136.000,0.200,681.000,0.300,426.000,0.500,419.000,1.000,161.000,5.000,0
"03/01/08","00:13:23",10375.000,"cc",28324.916,1,0.100,8854.000,0.200,622.000,0.300,343.000,0.500,417.000,1.000,139.000,5.000,0
"03/01/08","00:13:29",10942.000,"cc",28373.541,1,0.100,9151.000,0.200,717.000,0.300,417.000,0.500,493.000,1.000,164.000,5.000,0
"03/01/08","00:13:35",10308.000,"cc",28189.451,1,0.100,8969.000,0.200,559.000,0.300,296.000,0.500,349.000,1.000,135.000,5.000,0
"03/01/08","00:13:41",11136.000,"cc",28265.727,1,0.100,9246.000,0.200,768.000,0.300,445.000,0.500,473.000,1.000,204.000,5.000,0
"03/01/08","00:13:47",11095.000,"cc",28376.963,1,0.100,9364.000,0.200,713.000,0.300,428.000,0.500,409.000,1.000,181.000,5.000,0
"03/01/08","00:13:53",10109.000,"cc",28433.539,1,0.100,8767.000,0.200,549.000,0.300,307.000,0.500,339.000,1.000,147.000,5.000,0
"03/01/08","00:13:59",10299.000,"cc",28244.639,1,0.100,8875.000,0.200,604.000,0.300,316.000,0.500,357.000,1.000,147.000,5.000,0
"03/01/08","00:14:05",10267.000,"cc",28406.258,1,0.100,8797.000,0.200,585.000,0.300,323.000,0.500,372.000,1.000,190.000,5.000,0
"03/01/08","00:14:11",9911.000,"cc",28369.281,1,0.100,8531.000,0.200,571.000,0.300,321.000,0.500,355.000,1.000,133.000,5.000,0
"03/01/08","00:14:17",9907.000,"cc",28156.227,1,0.100,8537.000,0.200,535.000,0.300,332.000,0.500,363.000,1.000,140.000,5.000,0
"03/01/08","00:14:23",10239.000,"cc",28277.232,1,0.100,8866.000,0.200,570.000,0.300,324.000,0.500,349.000,1.000,130.000,5.000,0
"03/01/08","00:14:29",11382.000,"cc",28409.740,1,0.100,9199.000,0.200,905.000,0.300,512.000,0.500,563.000,1.000,203.000,5.000,0
"03/01/08","00:14:35",10419.000,"cc",28345.951,1,0.100,8886.000,0.200,674.000,0.300,367.000,0.500,353.000,1.000,139.000,5.000,0
"03/01/08","00:14:41",10355.000,"cc",28408.734,1,0.100,8778.000,0.200,624.000,0.300,369.000,0.500,426.000,1.000,158.000,5.000,0
"03/01/08","00:14:47",10004.000,"cc",28361.729,1,0.100,8567.000,0.200,583.000,0.300,321.000,0.500,375.000,1.000,158.000,5.000,0
"03/01/08","00:14:53",9976.000,"cc",28239.932,1,0.100,8664.000,0.200,554.000,0.300,305.000,0.500,318.000,1.000,135.000,5.000,0
"03/01/08","00:14:59",10796.000,"cc",28244.451,1,0.100,9049.000,0.200,685.000,0.300,410.000,0.500,446.000,1.000,206.000,5.000,0
"03/01/08","00:15:05",10471.000,"cc",28371.352,1,0.100,8959.000,0.200,632.000,0.300,362.000,0.500,363.000,1.000,155.000,5.000,0
"03/01/08","00:15:11",10300.000,"cc",28406.111,1,0.100,8761.000,0.200,607.000,0.300,351.000,0.500,423.000,1.000,158.000,5.000,0
"03/01/08","00:15:17",9899.000,"cc",28218.395,1,0.100,8585.000,0.200,542.000,0.300,314.000,0.500,312.000,1.000,146.000,5.000,0
"03/01/08","00:15:23",10862.000,"cc",28339.297,1,0.100,8890.000,0.200,795.000,0.300,479.000,0.500,501.000,1.000,197.000,5.000,0
"03/01/08","00:15:29",10667.000,"cc",28301.959,1,0.100,8836.000,0.200,781.000,0.300,464.000,0.500,409.000,1.000,177.000,5.000,0
"03/01/08","00:15:35",10220.000,"cc",28365.697,1,0.100,8712.000,0.200,631.000,0.300,326.000,0.500,390.000,1.000,161.000,5.000,0
"03/01/08","00:15:41",10318.000,"cc",28252.318,1,0.100,8856.000,0.200,584.000,0.300,340.000,0.500,388.000,1.000,150.000,5.000,0
"03/01/08","00:15:47",10205.000,"cc",28331.205,1,0.100,8750.000,0.200,553.000,0.300,354.000,0.500,385.000,1.000,163.000,5.000,0
"03/01/08","00:15:53",11058.000,"cc",28336.111,1,0.100,9110.000,0.200,771.000,0.300,511.000,0.500,486.000,1.000,180.000,5.000,0
"03/01/08","00:15:59",10256.000,"cc",28316.793,1,0.100,8699.000,0.200,602.000,0.300,393.000,0.500,427.000,1.000,134.000,5.000,1.000
"03/01/08","00:16:05",9657.000,"cc",28324.373,1,0.100,8287.000,0.200,552.000,0.300,309.000,0.500,374.000,1.000,135.000,5.000,0
"03/01/08","00:16:11",10132.000,"cc",28327.947,1,0.100,8521.000,0.200,632.000,0.300,395.000,0.500,429.000,1.000,155.000,5.000,0
"03/01/08","00:16:17",10090.000,"cc",28374.863,1,0.100,8534.000,0.200,615.000,0.300,391.000,0.500,397.000,1.000,153.000,5.000,0
"03/01/08","00:16:23",9892.000,"cc",28421.900,1,0.100,8355.000,0.200,609.000,0.300,357.000,0.500,422.000,1.000,149.000,5.000,0
"03/01/08","00:16:29",9703.000,"cc",28317.637,1,0.100,8375.000,0.200,531.000,0.300,327.000,0.500,346.000,1.000,124.000,5.000,0
"03/01/08","00:16:35",9549.000,"cc",28307.918,1,0.100,8108.000,0.200,585.000,0.300,337.000,0.500,378.000,1.000,141.000,5.000,0
"03/01/08","00:16:41",9490.000,"cc",28387.568,1,0.100,8230.000,0.200,486.000,0.300,328.000,0.500,309.000,1.000,137.000,5.000,0
"03/01/08","00:16:47",9499.000,"cc",28270.541,1,0.100,8061.000,0.200,544.000,0.300,348.000,0.500,384.000,1.000,162.000,5.000,0
"03/01/08","00:16:53",9920.000,"cc",28287.084,1,0.100,8363.000,0.200,614.000,0.300,382.000,0.500,435.000,1.000,126.000,5.000,0
"03/01/08","00:16:59",10005.000,"cc",28318.891,1,0.100,8392.000,0.200,618.000,0.300,380.000,0.500,447.000,1.000,168.000,5.000,0
"03/01/08","00:17:05",9676.000,"cc",28394.551,1,0.100,8296.000,0.200,553.000,0.300,304.000,0.500,382.000,1.000,141.000,5.000,0
"03/01/08","00:17:11",9837.000,"cc",28267.523,1,0.100,8221.000,0.200,650.000,0.300,366.000,0.500,421.000,1.000,179.000,5.000,0
"03/01/08","00:17:17",9787.000,"cc",28317.377,1,0.100,8212.000,0.200,660.000,0.300,386.000,0.500,396.000,1.000,133.000,5.000,0
"03/01/08","00:17:23",9332.000,"cc",28256.865,1,0.100,8027.000,0.200,494.000,0.300,333.000,0.500,329.000,1.000,149.000,5.000,0
"03/01/08","00:17:29",9299.000,"cc",28287.350,1,0.100,8032.000,0.200,480.000,0.300,296.000,0.500,346.000,1.000,145.000,5.000,0